User: anonymous   Login
Location: Unspecified
(0.0000°N, 0.0000°E)
Time: 19:42:54
(UTC+00:00)
Language:

GOMX4-B - Orbit

View from above orbital plane
View from above orbital plane
View from above satellite
View from above satellite

Ground track
Ground track

The orbit data is extracted from the following two-line orbital elements,

1 43196U 18015E   19077.77515721 +.00000454 +00000-0 +21720-4 0  9996
2 43196 097.3761 206.7057 0017599 272.6468 087.2768 15.23834473062344
Epoch (UTC): 18 March 2019 18:36:13
Eccentricity: 0.0017599
inclination: 97.3761°
perigee height: 482 km
apogee height: 506 km
right ascension of ascending node: 206.7057°
argument of perigee: 272.6468°
revolutions per day: 15.23834473
mean anomaly at epoch: 87.2768°
orbit number at epoch: 6234

The dashed part of the orbit path shows where the satellite is in the earth's shadow,  

DLR